Location: Tamazert
(32.6352°N, 5.2072°W)
Time: 15:52:34
(UTC+00:00)

Vanguard 3 - Pass Details

Date: 11 October 2022
Orbit: 509 x 3255 km, 33.3° (Epoch: 08 December)

Event Time Altitude Azimuth Distance (km) Brightness Sun altitude
Rises 10:23:47 0° 279° (W) 2,740 9.6 43.2°
Reaches altitude 10° 10:25:42 10° 275° (W) 1,965 8.9 43.5°
Maximum altitude 10:29:59 57° 196° (SSW) 919 8.6 44.0°
Drops below altitude 10° 10:36:48 10° 120° (ESE) 3,090 11.0 44.8°
Sets 10:40:33 0° 117° (ESE) 4,506 11.5 45.2°
